Location: *
(46.1866°S, 178.5290°W)
Time: 15:15:58
(UTC+00:00)

CZ-4B R/B - Pass Details

Date: 26 September 2021
Orbit: 809 x 881 km, 99.1° (Epoch: 24 October)

Event Time Altitude Azimuth Distance (km) Brightness Sun altitude
Rises 07:21:16 0° 168° (SSE) 3,375 6.4 -15.3°
Reaches altitude 10° 07:23:38 10° 170° (S) 2,433 5.7 -15.7°
Maximum altitude 07:28:57 67° 251° (WSW) 890 3.5 -16.5°
Drops below altitude 10° 07:34:14 10° 332° (NNW) 2,413 5.6 -17.4°
Sets 07:36:35 0° 335° (NNW) 3,343 6.4 -17.8°
